Quincy, IL

12:44 PM CST on November 12, 2019 (GMT -0600)
Quincy Regional-Baldwin

Weather History for KUIN - September, 2019

Change the Weather History Date:

Monday, September 2, 2019

  Actual Average Record
Temperature  
Mean Temperature 72 °F 72 °F  
Max Temperature 82 °F 82 °F 103 °F (1913)
Min Temperature 61 °F 61 °F 45 °F (1949)
Degree Days  
Heating Degree Days 0 1  
Month to date heating degree days 0 1  
Since 1 July heating degree days 2 6  
Cooling Degree Days 6 7  
Month to date cooling degree days 13 14  
Year to date cooling degree days 1070 967  
Growing Degree Days 22 (Base 50)    
Moisture  
Dew Point 64 °F    
Average Humidity 85    
Maximum Humidity 100    
Minimum Humidity 58    
Precipitation  
Precipitation 0.00 in 0.11 in 2.68 in (1993)
Month to date precipitation 0.00 0.22  
Year to date precipitation 31.03 25.97  
Sea Level Pressure  
Sea Level Pressure 30.11 in    
Wind  
Wind Speed 3 mph ()    
Max Wind Speed 12 mph    
Max Gust Speed 15 mph    
Visibility 5.1 miles    
Events Fog    
T = Trace of Precipitation, MM = Missing Value Source: Averaged Metar Reports

Daily Weather History Graph

Daily Weather History Graph

Search for Another Location

Airport or City:

Astronomy

Sep. 02, 2019 Rise Set
Actual Time 6:33 AM CDT 7:34 PM CDT
Civil Twilight 6:05 AM CDT 8:02 PM CDT
Nautical Twilight 5:32 AM CDT 8:35 PM CDT
Astronomical Twilight 4:58 AM CDT 9:09 PM CDT
Moon 10:15 AM CDT (9/2) 9:56 PM CDT (9/2)
Length of Visible Light 13h 56m
Length of Day
13h 01m
Waxing Crescent, 15% of the Moon is Illuminated
Sep 2
Waxing Crescent
Sep 5
First Quarter
Sep 13
Full
Sep 21
Last Quarter
Sep 28
New

Hourly Weather History & Observations

Time (CDT) Temp. Heat Index Dew Point Humidity Pressure Visibility Wind Dir Wind Speed Gust Speed Precip Events Conditions
12:54 AM 66.0 °F - 64.0 °F 93% 30.10 in 4.0 mi Calm Calm - N/A   Clear
12:57 AM 66.0 °F - 64.0 °F 93% 30.12 in 1.8 mi Calm Calm - N/A   Clear
1:10 AM 64.9 °F - 63.0 °F 93% 30.12 in 3.0 mi Calm Calm - N/A   Clear
1:54 AM 64.0 °F - 62.1 °F 93% 30.11 in 5.0 mi South 3.5 mph - N/A   Clear
2:43 AM 62.1 °F - 60.1 °F 93% 30.12 in 1.2 mi Calm Calm - N/A   Clear
2:45 AM 63.0 °F - 61.0 °F 93% 30.12 in 0.8 mi Calm Calm - N/A   Mist
2:54 AM 63.0 °F - 62.1 °F 97% 30.10 in 0.2 mi SSW 3.5 mph - N/A Fog Fog
3:20 AM 62.1 °F - 61.0 °F 96% 30.12 in 0.5 mi South 4.6 mph - N/A Fog Fog
3:27 AM 62.1 °F - 61.0 °F 96% 30.12 in 0.2 mi SSW 4.6 mph - N/A Fog Fog
3:54 AM 62.1 °F - 61.0 °F 96% 30.11 in 0.2 mi SSW 3.5 mph - N/A Fog Fog
4:14 AM 62.1 °F - 61.0 °F 96% 30.12 in 0.5 mi South 3.5 mph - N/A Fog Fog
4:23 AM 63.0 °F - 62.1 °F 97% 30.12 in 2.0 mi Calm Calm - N/A   Scattered Clouds
4:33 AM 62.1 °F - 61.0 °F 96% 30.12 in 3.0 mi South 3.5 mph - N/A   Partly Cloudy
4:54 AM 62.1 °F - 61.0 °F 96% 30.10 in 1.8 mi South 3.5 mph - N/A   Clear
5:14 AM 62.1 °F - 61.0 °F 96% 30.12 in 2.5 mi Calm Calm - N/A   Clear
5:36 AM 62.1 °F - 60.1 °F 93% 30.12 in 7.0 mi Calm Calm - N/A   Clear
5:45 AM 61.0 °F - 60.1 °F 97% 30.13 in 1.8 mi Calm Calm - N/A   Clear
5:54 AM 61.0 °F - 60.1 °F 97% 30.12 in 0.5 mi Calm Calm - N/A Fog Fog
6:08 AM 62.1 °F - 60.1 °F 93% 30.14 in 0.2 mi Calm Calm - N/A Fog Fog
6:30 AM 62.1 °F - 60.1 °F 93% 30.15 in 0.5 mi Calm Calm - N/A Fog Fog
6:54 AM 62.1 °F - 60.1 °F 93% 30.14 in 0.2 mi WSW 3.5 mph - N/A Fog Fog
7:31 AM 62.1 °F - 61.0 °F 96% 30.15 in 0.2 mi SSW 4.6 mph - N/A Fog Fog
7:54 AM 64.0 °F - 63.0 °F 96% 30.14 in 0.2 mi SSW 4.6 mph - N/A Fog Fog
8:01 AM 64.0 °F - 63.0 °F 96% 30.15 in 0.8 mi South 4.6 mph - N/A   Mist
8:08 AM 64.9 °F - 64.0 °F 97% 30.14 in 1.8 mi South 5.8 mph - N/A   Mostly Cloudy
8:14 AM 66.0 °F - 64.0 °F 93% 30.15 in 2.5 mi SSW 5.8 mph - N/A   Scattered Clouds
8:28 AM 66.0 °F - 64.9 °F 96% 30.15 in 3.0 mi SSW 4.6 mph - N/A   Partly Cloudy
8:54 AM 69.1 °F - 64.9 °F 87% 30.14 in 4.0 mi SW 3.5 mph - N/A   Clear
9:54 AM 73.0 °F - 66.0 °F 79% 30.14 in 10.0 mi Calm Calm - N/A   Clear
10:54 AM 77.0 °F - 66.0 °F 69% 30.13 in 10.0 mi Calm Calm - N/A   Clear
11:27 AM 77.0 °F - 66.0 °F 69% 30.15 in 10.0 mi SW 4.6 mph - N/A   Mostly Cloudy
11:54 AM 77.0 °F - 66.9 °F 71% 30.13 in 10.0 mi SW 8.1 mph - N/A   Mostly Cloudy
12:14 PM 78.1 °F - 66.9 °F 68% 30.14 in 10.0 mi South 8.1 mph - N/A   Scattered Clouds
12:37 PM 77.0 °F - 66.0 °F 69% 30.14 in 10.0 mi Variable 4.6 mph - N/A   Mostly Cloudy
12:54 PM 79.0 °F - 66.0 °F 64% 30.13 in 10.0 mi SW 5.8 mph - N/A   Mostly Cloudy
1:19 PM 79.0 °F - 66.0 °F 64% 30.13 in 10.0 mi SSE 5.8 mph - N/A   Partly Cloudy
1:54 PM 79.0 °F - 66.0 °F 64% 30.10 in 10.0 mi Variable 4.6 mph - N/A   Partly Cloudy
2:54 PM 80.1 °F 82.1 °F 66.0 °F 62% 30.08 in 10.0 mi SSE 4.6 mph - N/A   Clear
3:54 PM 81.0 °F 82.7 °F 64.9 °F 58% 30.06 in 10.0 mi SE 6.9 mph - N/A   Clear
4:54 PM 81.0 °F 83.0 °F 66.0 °F 60% 30.04 in 10.0 mi SSE 6.9 mph - N/A   Partly Cloudy
5:54 PM 80.1 °F 82.1 °F 66.0 °F 62% 30.04 in 10.0 mi South 5.8 mph - N/A   Clear
6:54 PM 78.1 °F - 68.0 °F 71% 30.03 in 10.0 mi SE 4.6 mph - N/A   Mostly Cloudy
7:54 PM 73.9 °F - 66.9 °F 79% 30.02 in 10.0 mi SE 4.6 mph - N/A   Clear
8:54 PM 71.1 °F - 66.9 °F 87% 30.03 in 10.0 mi SE 5.8 mph - N/A   Clear
9:54 PM 70.0 °F - 66.0 °F 87% 30.03 in 10.0 mi SE 5.8 mph - N/A   Clear
10:54 PM 71.1 °F - 66.0 °F 84% 30.02 in 10.0 mi SSE 8.1 mph - N/A   Clear
11:54 PM 69.1 °F - 66.0 °F 90% 29.99 in 10.0 mi SSE 8.1 mph - N/A   Clear